Tracking 29892 objects as of 21-Nov-2024
HD Live streaming from Space Station
objects crossing your sky now

STARLINK-3801

Track STARLINK-3801 now!
10-day predictions
STARLINK-3801 is classified as:


NORAD ID: 52356
Int'l Code: 2022-045AB
Perigee: 545.8 km
Apogee: 548.0 km
Inclination: 53.2 °
Period: 95.4 minutes
Semi major axis: 6917 km
RCS: Unknown
Launch date: April 29, 2022
Source: United States (US)
Launch site: AIR FORCE EASTERN TEST RANGE (AFETR)
Your satellite tracking list
Your tracking list is empty




NASA's NSSDC Master Catalog

Two Line Element Set (TLE):
1 52356U 22045AB  24325.92890724 -.00000722  00000-0 -27256-4 0  9990
2 52356  53.2161 165.9388 0001585  80.7150 279.4021 15.08842880144267
Source of the keplerian elements: AFSPC